Weather History for Hayward, WI

Change the Weather History Date:

Monday, November 17, 2014

  Actual Average Record
Temperature  
Mean Temperature 8 °F -  
Max Temperature 14 °F 39 °F 64 °F (2001)
Min Temperature 3 °F 22 °F -2 °F (2005)
Degree Days  
Heating Degree Days 56    
Moisture  
Dew Point 3 °F    
Average Humidity 73    
Maximum Humidity 85    
Minimum Humidity 61    
Precipitation  
Precipitation 0.00 in - - ()
Sea Level Pressure  
Sea Level Pressure 29.82 in    
Wind  
Wind Speed 6 mph (West)    
Max Wind Speed 13 mph    
Max Gust Speed 25 mph    
Visibility 6 miles    
Events Snow    
Averages and records for this station are not official NWS values.
T = Trace of Precipitation, MM = Missing Value Source: NWS Daily Summary

Daily Weather History Graph

Daily Weather History Graph

Search for Another Location

Airport:

Trip Planner

Search our weather history database for the weather conditions in past years. The results will help you decide how hot, cold, wet, or windy it might be!

Date:

Astronomy

Nov. 17, 2014 Rise Set
Actual Time 7:09 AM CST 4:31 PM CST
Civil Twilight 6:36 AM CST 5:04 PM CST
Nautical Twilight 6:00 AM CST 5:41 PM CST
Astronomical Twilight 5:24 AM CST 6:16 PM CST
Moon 1:55 AM CST (11/17) 2:10 PM CST (11/17)
Length of Visible Light 10h 28m
Length of Day
9h 22m
Waning Crescent, 22% of the Moon is Illuminated
Nov 17
Waning Crescent
Nov 22
New
Nov 29
First Quarter
Dec 6
Full
Dec 14
Last Quarter

Hourly Weather History & Observations

Time (CST) Temp. Windchill Dew Point Humidity Pressure Visibility Wind Dir Wind Speed Gust Speed Precip Events Conditions
12:01 AM 10.0 °F 1.8 °F 6.1 °F 84% 29.75 in 3.0 mi SW 4.6 mph - 0.00 in Snow Light Snow
12:11 AM 10.0 °F 3.6 °F 6.1 °F 84% 29.75 in 6.0 mi West 3.5 mph - 0.00 in Snow Light Snow
12:46 AM 10.0 °F 1.8 °F 6.1 °F 84% 29.75 in 10.0 mi West 4.6 mph - 0.00 in   Overcast
12:53 AM 10.0 °F 1.8 °F 6.1 °F 84% 29.83 in 10.0 mi West 4.6 mph - 0.00 in   Overcast
1:32 AM 10.9 °F 2.9 °F 6.1 °F 81% 29.75 in 4.0 mi Variable 4.6 mph - 0.00 in Snow Light Snow
1:53 AM 10.9 °F 1.4 °F 5.0 °F 77% 29.83 in 7.0 mi WNW 5.8 mph - 0.00 in Snow Light Snow
2:53 AM 9.0 °F 2.4 °F 3.0 °F 77% 29.83 in 10.0 mi Variable 3.5 mph - 0.00 in   Clear
3:53 AM 7.0 °F -3.3 °F 1.9 °F 80% 29.83 in 10.0 mi West 5.8 mph - N/A   Scattered Clouds
4:53 AM 5.0 °F -4.1 °F -0.0 °F 80% 29.83 in 10.0 mi SW 4.6 mph - N/A   Clear
5:53 AM 3.9 °F -5.3 °F -0.9 °F 80% 29.84 in 10.0 mi WSW 4.6 mph - N/A   Mostly Cloudy
6:53 AM 3.9 °F -3.4 °F -0.9 °F 80% 29.84 in 9.0 mi Variable 3.5 mph - 0.00 in   Mostly Cloudy
7:33 AM 3.9 °F -5.3 °F -0.9 °F 80% 29.75 in 4.0 mi West 4.6 mph - 0.00 in Snow Light Snow
7:44 AM 3.9 °F - -0.9 °F 80% 29.75 in 9.0 mi North - - 0.00 in   Scattered Clouds
7:53 AM 3.9 °F -6.9 °F -0.9 °F 80% 29.85 in 10.0 mi Variable 5.8 mph - 0.00 in   Partly Cloudy
8:28 AM 5.0 °F -6.9 °F -0.9 °F 76% 29.76 in 5.0 mi Variable 6.9 mph - N/A   Haze
8:53 AM 5.0 °F -5.6 °F -0.9 °F 76% 29.85 in 9.0 mi Variable 5.8 mph - N/A   Mostly Cloudy
9:53 AM 8.1 °F -2.0 °F -0.0 °F 70% 29.85 in 4.0 mi Variable 5.8 mph - N/A   Haze
10:53 AM 9.0 °F -5.1 °F 1.0 °F 70% 29.85 in 4.0 mi WNW 10.4 mph 17.3 mph N/A   Haze
11:53 AM 12.0 °F 1.5 °F 1.9 °F 64% 29.83 in 7.0 mi Variable 6.9 mph - N/A   Overcast
12:53 PM 12.0 °F 4.1 °F 1.9 °F 64% 29.83 in 9.0 mi West 4.6 mph 21.9 mph N/A   Overcast
1:06 PM 12.0 °F -2.0 °F 1.0 °F 61% 29.75 in 9.0 mi WNW 11.5 mph 17.3 mph N/A   Overcast
1:42 PM 12.0 °F -1.3 °F 3.0 °F 67% 29.75 in 5.0 mi West 10.4 mph 18.4 mph 0.00 in Snow Light Snow
1:53 PM 12.0 °F 1.5 °F 3.0 °F 67% 29.83 in 3.0 mi Variable 6.9 mph - 0.00 in Snow Light Snow
2:13 PM 12.0 °F -0.4 °F 1.9 °F 64% 29.76 in 6.0 mi NW 9.2 mph 20.7 mph 0.00 in   Haze
2:40 PM 12.0 °F -1.3 °F 3.0 °F 67% 29.77 in 3.0 mi WNW 10.4 mph 21.9 mph 0.00 in Snow Light Snow
2:53 PM 12.0 °F 0.5 °F 3.0 °F 67% 29.86 in 6.0 mi WNW 8.1 mph 23.0 mph 0.00 in   Haze
3:27 PM 10.9 °F 0.2 °F 3.9 °F 73% 29.78 in 2.0 mi West 6.9 mph 19.6 mph 0.00 in Snow Light Snow
3:51 PM 10.4 °F -0.4 °F 3.2 °F 73% 29.79 in 1.5 mi Variable 6.9 mph - 0.00 in Snow Light Snow
3:53 PM 10.9 °F -0.8 °F 5.0 °F 77% 29.88 in 1.5 mi West 8.1 mph - 0.00 in Snow Light Snow
4:24 PM 10.9 °F 1.4 °F 5.0 °F 77% 29.80 in 1.0 mi West 5.8 mph - 0.00 in Snow Light Snow
4:51 PM 10.4 °F 0.8 °F 6.8 °F 85% 29.80 in 1.5 mi West 5.8 mph - 0.00 in Snow Light Snow
4:53 PM 10.9 °F 1.4 °F 6.1 °F 81% 29.89 in 1.5 mi WSW 5.8 mph - 0.00 in Snow Light Snow
5:30 PM 10.9 °F 2.9 °F 6.1 °F 81% 29.80 in 2.5 mi WSW 4.6 mph - 0.00 in Snow Light Snow
5:38 PM 10.9 °F 1.4 °F 6.1 °F 81% 29.80 in 3.0 mi Variable 5.8 mph - 0.00 in Snow Light Snow
5:53 PM 10.9 °F 2.9 °F 6.1 °F 81% 29.89 in 5.0 mi Variable 4.6 mph - 0.00 in Snow Light Snow
6:07 PM 12.0 °F 4.1 °F 5.0 °F 73% 29.80 in 9.0 mi West 4.6 mph - 0.00 in Snow Light Snow
6:53 PM 14.0 °F 2.9 °F 3.9 °F 64% 29.89 in 10.0 mi WNW 8.1 mph 21.9 mph 0.00 in   Overcast
7:07 PM 14.0 °F -0.2 °F 3.9 °F 64% 29.81 in 10.0 mi NW 12.7 mph 18.4 mph N/A   Overcast
7:28 PM 12.9 °F -0.9 °F 3.0 °F 65% 29.81 in 4.0 mi NW 11.5 mph 24.2 mph 0.00 in Snow Light Snow
7:36 PM 12.9 °F 0.7 °F 3.9 °F 67% 29.81 in 4.0 mi NW 9.2 mph 18.4 mph 0.00 in Snow Light Snow
7:53 PM 12.0 °F -1.3 °F 1.9 °F 64% 29.90 in 5.0 mi NW 10.4 mph 25.3 mph 0.00 in   Haze
8:10 PM 12.0 °F -2.0 °F 1.0 °F 61% 29.82 in 9.0 mi WNW 11.5 mph 25.3 mph N/A   Overcast
8:53 PM 10.9 °F 0.2 °F -0.0 °F 61% 29.91 in 10.0 mi WNW 6.9 mph - N/A   Overcast
9:53 PM 10.9 °F -0.8 °F -0.0 °F 61% 29.91 in 10.0 mi WNW 8.1 mph - N/A   Mostly Cloudy
10:53 PM 10.0 °F -0.9 °F 1.0 °F 67% 29.91 in 10.0 mi Variable 6.9 mph - N/A   Partly Cloudy
11:06 PM 10.0 °F -1.9 °F 1.0 °F 67% 29.82 in 10.0 mi WNW 8.1 mph - N/A   Mostly Cloudy
11:53 PM 9.0 °F -2.2 °F 1.0 °F 70% 29.91 in 10.0 mi NW 6.9 mph - N/A   Mostly Cloudy